User: anonymous   Login
Location: Unspecified
(0.0000°N, 0.0000°E)
Time: 14:08:43
(UTC+00:00)
Language:

Cosmos 1544 - Orbit

View from above orbital plane
View from above orbital plane
View from above satellite
View from above satellite

Ground track
Ground track

The orbit data is extracted from the following two-line orbital elements,

1 14819U 84027A   18113.92131515  .00001348  00000-0  49966-4 0  9999
2 14819  82.4834  75.2676 0014964  32.5949 327.6209 15.26620151863200
Epoch (UTC): 23 April 2018 22:06:41
Eccentricity: 0.0014964
inclination: 82.4834°
perigee height: 475 km
apogee height: 496 km
right ascension of ascending node: 75.2676°
argument of perigee: 32.5949°
revolutions per day: 15.26620151
mean anomaly at epoch: 327.6209°
orbit number at epoch: 86320

The dashed part of the orbit path shows where the satellite is in the earth's shadow,  

DLR